Newport Airport, OR

9:41 AM PDT on March 23, 2017 (GMT -0700)
Newport Municipal

Weather History for KONP - December, 2012

Change the Weather History Date:

Wednesday, December 19, 2012

  Actual Average Record
Temperature  
Mean Temperature 44 °F -  
Max Temperature 50 °F 48 °F 57 °F (2005)
Min Temperature 37 °F 39 °F 30 °F (2013)
Degree Days  
Heating Degree Days 22    
Moisture  
Dew Point 40 °F    
Average Humidity 87    
Maximum Humidity 93    
Minimum Humidity 76    
Precipitation  
Precipitation 0.93 in - - ()
Sea Level Pressure  
Sea Level Pressure 29.80 in    
Wind  
Wind Speed 19 mph (South)    
Max Wind Speed 41 mph    
Max Gust Speed 63 mph    
Visibility 8 miles    
Events Rain    
Averages and records for this station are not official NWS values.
T = Trace of Precipitation, MM = Missing Value Source: NWS Daily Summary

Daily Weather History Graph

Daily Weather History Graph

Search for Another Location

Airport or City:

Trip Planner

Search our weather history database for the weather conditions in past years. The results will help you decide how hot, cold, wet, or windy it might be!

Date:

Astronomy

Dec. 19, 2012 Rise Set
Actual Time 7:49 AM PST 4:38 PM PST
Civil Twilight 7:15 AM PST 5:11 PM PST
Nautical Twilight 6:38 AM PST 5:48 PM PST
Astronomical Twilight 6:03 AM PST 6:24 PM PST
Moon 11:44 AM PST (12/19) No Moon Set
Length of Visible Light 9h 56m
Length of Day
8h 49m
Waxing Crescent, 46% of the Moon is Illuminated
Dec 19
Waxing Crescent
Dec 19
First Quarter
Dec 28
Full
Jan 4
Last Quarter
Jan 11
New

Hourly Weather History & Observations

Time (PST) Temp. Windchill Dew Point Humidity Pressure Visibility Wind Dir Wind Speed Gust Speed Precip Events Conditions
12:15 AM 37.4 °F 30.3 °F 35.6 °F 93% 30.04 in 10.0 mi SSE 10.4 mph 17.3 mph 0.01 in Rain Rain
12:35 AM 37.4 °F 30.8 °F 35.6 °F 93% 30.03 in 10.0 mi SSE 9.2 mph - 0.02 in Rain Light Rain
12:55 AM 37.4 °F 30.8 °F 35.6 °F 93% 30.03 in 10.0 mi SSE 9.2 mph 16.1 mph 0.02 in Rain Rain
1:15 AM 37.4 °F 30.8 °F 35.6 °F 93% 30.01 in 10.0 mi SSE 9.2 mph 16.1 mph 0.01 in Rain Rain
1:35 AM 37.4 °F 30.3 °F 35.6 °F 93% 30.01 in 10.0 mi SSE 10.4 mph - 0.01 in   Drizzle
1:55 AM 37.4 °F 29.8 °F 35.6 °F 93% 30.00 in 10.0 mi SSE 11.5 mph 18.4 mph 0.01 in   Drizzle
2:15 AM 37.4 °F 29.3 °F 35.6 °F 93% 30.00 in 10.0 mi SSE 12.7 mph 17.3 mph 0.01 in Rain Rain
2:35 AM 37.4 °F 29.8 °F 35.6 °F 93% 30.00 in 10.0 mi South 11.5 mph 19.6 mph 0.02 in Rain Light Rain
2:55 AM 39.2 °F 30.8 °F 35.6 °F 87% 29.99 in 10.0 mi South 15.0 mph 24.2 mph 0.03 in Rain Light Rain
3:15 AM 39.2 °F 31.2 °F 35.6 °F 87% 29.97 in 10.0 mi SSE 13.8 mph 26.5 mph N/A Rain Rain
3:35 AM 37.4 °F 28.2 °F 35.6 °F 93% 29.96 in 10.0 mi SSE 16.1 mph 21.9 mph N/A Rain Rain
3:55 AM 39.2 °F 30.2 °F 35.6 °F 87% 29.95 in 10.0 mi South 17.3 mph 21.9 mph 0.01 in   Overcast
4:15 AM 39.2 °F 30.5 °F 35.6 °F 87% 29.94 in 10.0 mi South 16.1 mph 21.9 mph N/A Rain Rain
4:35 AM 39.2 °F 31.6 °F 37.4 °F 93% 29.93 in 7.0 mi South 12.7 mph 23.0 mph N/A Rain Rain
4:55 AM 39.2 °F 32.0 °F 37.4 °F 93% 29.93 in 10.0 mi South 11.5 mph 23.0 mph N/A   Drizzle
5:15 AM 41.0 °F 32.5 °F 37.4 °F 87% 29.92 in 10.0 mi South 17.3 mph 25.3 mph 0.01 in Rain Light Rain
5:35 AM 41.0 °F 32.8 °F 37.4 °F 87% 29.91 in 10.0 mi South 16.1 mph 23.0 mph 0.02 in Rain Light Rain
5:55 AM 41.0 °F 33.5 °F 37.4 °F 87% 29.91 in 10.0 mi South 13.8 mph 17.3 mph 0.02 in Rain Rain
6:15 AM 41.0 °F 33.5 °F 37.4 °F 87% 29.90 in 10.0 mi South 13.8 mph 20.7 mph N/A   Drizzle
6:35 AM 41.0 °F 33.1 °F 37.4 °F 87% 29.90 in 10.0 mi South 15.0 mph 23.0 mph 0.01 in Rain Rain
6:55 AM 41.0 °F 33.5 °F 37.4 °F 87% 29.89 in 10.0 mi South 13.8 mph 26.5 mph 0.02 in Rain Rain
7:15 AM 41.0 °F 31.9 °F 37.4 °F 87% 29.89 in 10.0 mi South 19.6 mph 27.6 mph 0.01 in Rain Light Rain
7:35 AM 42.8 °F 33.5 °F 37.4 °F 81% 29.88 in 10.0 mi South 23.0 mph 41.4 mph 0.02 in Rain Light Rain
7:55 AM 42.8 °F 32.9 °F 37.4 °F 81% 29.87 in 10.0 mi South 26.5 mph 39.1 mph 0.02 in Rain Light Rain
8:15 AM 42.8 °F 33.5 °F 39.2 °F 87% 29.87 in 7.0 mi South 23.0 mph 34.5 mph 0.01 in Rain Light Rain
8:35 AM 41.0 °F 31.4 °F 37.4 °F 87% 29.86 in 7.0 mi South 21.9 mph 33.4 mph 0.02 in Rain Light Rain
8:55 AM 41.0 °F 31.9 °F 37.4 °F 87% 29.85 in 10.0 mi SSE 19.6 mph 28.8 mph 0.03 in Rain Light Rain
9:15 AM 41.0 °F 32.5 °F 37.4 °F 87% 29.85 in 7.0 mi South 17.3 mph 29.9 mph 0.02 in Rain Rain
9:35 AM 41.0 °F 31.9 °F 37.4 °F 87% 29.84 in 10.0 mi South 19.6 mph 27.6 mph 0.03 in Rain Light Rain
9:55 AM 42.8 °F 34.0 °F 41.0 °F 93% 29.83 in 10.0 mi South 20.7 mph 35.7 mph 0.03 in   Overcast
10:15 AM 44.6 °F 35.3 °F 41.0 °F 87% 29.83 in 10.0 mi South 26.5 mph 39.1 mph N/A   Overcast
10:35 AM 44.6 °F 35.3 °F 41.0 °F 87% - 10.0 mi South 26.5 mph 35.7 mph N/A   Drizzle
10:55 AM 44.6 °F 35.5 °F 41.0 °F 87% 29.82 in 7.0 mi South 25.3 mph 43.7 mph N/A   Overcast
11:15 AM 46.4 °F 37.4 °F 41.0 °F 81% 29.81 in 10.0 mi South 28.8 mph 42.6 mph N/A   Overcast
11:55 AM 46.4 °F 36.7 °F 42.8 °F 87% 29.78 in 10.0 mi South 33.4 mph 46.0 mph N/A   Overcast
12:15 PM 46.4 °F 36.9 °F 42.8 °F 87% 29.78 in 7.0 mi South 32.2 mph 41.4 mph N/A   Overcast
12:35 PM 46.4 °F 37.0 °F 42.8 °F 87% 29.77 in 4.0 mi South 31.1 mph 47.2 mph N/A Rain Light Rain
12:55 PM 46.4 °F 36.7 °F 42.8 °F 87% 29.75 in 10.0 mi South 33.4 mph 48.3 mph N/A   Overcast
1:15 PM 48.2 °F - 42.8 °F 82% 29.75 in 10.0 mi South 28.8 mph 49.5 mph N/A   Overcast
1:35 PM 46.4 °F 37.5 °F 42.8 °F 87% 29.74 in 4.0 mi South 27.6 mph 41.4 mph 0.02 in Rain Light Rain
1:55 PM 46.4 °F 37.5 °F 42.8 °F 87% 29.73 in 7.0 mi South 27.6 mph 47.2 mph 0.02 in Rain Light Rain
2:15 PM 46.4 °F 38.1 °F 42.8 °F 87% 29.73 in 10.0 mi South 24.2 mph 41.4 mph N/A   Overcast
2:35 PM 48.2 °F - 42.8 °F 82% 29.71 in 7.0 mi SSW 32.2 mph 48.3 mph N/A   Overcast
2:55 PM 48.2 °F - 42.8 °F 82% 29.71 in 5.0 mi South 29.9 mph 51.8 mph N/A Rain Rain
3:15 PM 50.0 °F - 42.8 °F 76% 29.70 in 10.0 mi South 35.7 mph 48.3 mph N/A   Overcast
3:35 PM 50.0 °F - 42.8 °F 76% 29.70 in 10.0 mi South 41.4 mph 51.8 mph N/A   Overcast
3:55 PM 50.0 °F - 42.8 °F 76% 29.70 in 7.0 mi South 35.7 mph 52.9 mph N/A   Drizzle
4:15 PM 50.0 °F - 42.8 °F 76% 29.69 in 7.0 mi South 31.1 mph 63.3 mph N/A Rain Rain
4:35 PM 50.0 °F - 42.8 °F 76% 29.69 in 7.0 mi South 33.4 mph 52.9 mph N/A Rain Rain
4:55 PM 46.4 °F 37.0 °F 42.8 °F 87% 29.70 in 5.0 mi South 31.1 mph 44.9 mph 0.02 in Rain Rain
5:15 PM 46.4 °F 37.7 °F 42.8 °F 87% 29.71 in 5.0 mi South 26.5 mph 38.0 mph 0.03 in Rain Rain
5:35 PM 46.4 °F 37.9 °F 42.8 °F 87% 29.70 in 5.0 mi South 25.3 mph 43.7 mph 0.06 in Rain Rain
5:55 PM 46.4 °F 37.2 °F 42.8 °F 87% 29.68 in 7.0 mi South 29.9 mph 42.6 mph 0.07 in Rain Light Rain
6:15 PM 46.4 °F 36.1 °F 42.8 °F 87% 29.67 in 10.0 mi South 38.0 mph 47.2 mph N/A Rain Light Rain
6:35 PM 46.4 °F 37.7 °F 42.8 °F 87% 29.66 in 7.0 mi South 26.5 mph 47.2 mph N/A Rain Light Rain
6:55 PM 46.4 °F 36.9 °F 42.8 °F 87% 29.67 in 10.0 mi South 32.2 mph 44.9 mph 0.01 in Rain Rain
7:15 PM 46.4 °F 37.4 °F 42.8 °F 87% 29.66 in 4.0 mi South 28.8 mph 47.2 mph 0.04 in Rain Rain
7:35 PM 46.4 °F 38.3 °F 42.8 °F 87% 29.65 in 7.0 mi South 23.0 mph 33.4 mph 0.07 in Rain Light Rain
7:55 PM 46.4 °F 40.1 °F 42.8 °F 87% 29.65 in 10.0 mi SSE 15.0 mph 38.0 mph 0.08 in Rain Light Rain
8:15 PM 46.4 °F 37.0 °F 42.8 °F 87% 29.64 in 10.0 mi South 31.1 mph 42.6 mph 0.01 in Rain Rain
8:35 PM 46.4 °F 37.5 °F 42.8 °F 87% 29.63 in 5.0 mi South 27.6 mph 42.6 mph 0.05 in Rain Light Rain
8:55 PM 46.4 °F 37.0 °F 42.8 °F 87% 29.62 in 5.0 mi South 31.1 mph 42.6 mph 0.09 in Rain Light Rain
9:15 PM 46.4 °F 37.9 °F 42.8 °F 87% 29.62 in 7.0 mi South 25.3 mph 40.3 mph 0.03 in Rain Rain
9:35 PM 46.4 °F 37.0 °F 44.6 °F 93% 29.62 in 4.0 mi South 31.1 mph 51.8 mph 0.06 in Rain Rain
9:55 PM 46.4 °F 37.7 °F 42.8 °F 87% 29.61 in 4.0 mi South 26.5 mph 46.0 mph 0.12 in Rain Rain
10:15 PM 46.4 °F 37.0 °F 42.8 °F 87% 29.61 in 4.0 mi South 31.1 mph 42.6 mph 0.05 in Rain Heavy Rain
10:35 PM 46.4 °F 39.5 °F 42.8 °F 87% 29.60 in 7.0 mi SSE 17.3 mph 28.8 mph 0.09 in Rain Rain
11:15 PM 44.6 °F 37.4 °F 42.8 °F 93% 29.61 in 5.0 mi South 16.1 mph 35.7 mph 0.07 in Rain Heavy Rain
11:35 PM 46.4 °F 37.7 °F 42.8 °F 87% 29.60 in 4.0 mi South 26.5 mph 40.3 mph 0.16 in Rain Rain
11:55 PM 46.4 °F 36.9 °F 42.8 °F 87% 29.62 in 4.0 mi South 32.2 mph 41.4 mph 0.24 in Rain Heavy Rain